Regional Weather Roundup
Issued by NWS

Home | Current Version | Previous Version | Text Only | Print | Product List | Glossary On
Versions: 1 2 3 4 5 6 7 8 9 10 11 12 13 14 15 16 17 18 19 20 21 22 23 24 25 26 27 28 29 30 31 32 33 34 35 36 37 38 39 40 41 42 43 44 45 46 47 48 49 50
000
ASHW40 PHFO 010130
RWRHI

WEATHER ROUNDUP FOR HAWAII
NATIONAL WEATHER SERVICE HONOLULU HI
300 PM HST SAT JAN 31 2015

THIS IS AN AUTOMATED REPORT THAT HAS NOT BEEN QUALITY CONTROLLED.

NOTE..."FAIR" INDICATES FEW OR NO CLOUDS BELOW 12,000 FEET WITH NO
SIGNIFICANT WEATHER AND/OR OBSTRUCTIONS TO VISIBILITY.

* - THESE SITES REPORT LIMITED FIELDS

HIZ001>004-010200-
KAUAI-NIIHAU-

CITY           SKY/WX    TMP DP  RH WIND       PRES   REMARKS
LIHUE APT      MOSUNNY   77  58  51 E8        29.99F
PORT ALLEN*      N/A     81 N/A N/A W13         N/A
POIPU*           N/A     75 N/A N/A E5          N/A
PRINCEVILLE*     N/A     75 N/A N/A MISG        N/A
KOKOLE POINT*  NOT AVBL
MOLOAA DAIRY*  NOT AVBL
WAIMEA HTS*    NOT AVBL
PUU OPAE*      NOT AVBL
PUU LUA*       NOT AVBL
MAKAHA RIDGE*  NOT AVBL
$$

HIZ005>011-010200-
OAHU-

CITY           SKY/WX    TMP DP  RH WIND       PRES   REMARKS
HONOLULU       MOSUNNY   79  66  64 SW12      29.96S
KALAELOA       SUNNY     78  61  55 SW9       29.97F
KANEOHE MCB    PTSUNNY   79  66  64 VRB6      29.96F
WHEELER FIELD  FAIR      73  64  73 N8        29.99S
BELLOWS*         N/A    N/A N/A N/A N5          N/A
KAHUKU*          N/A    N/A N/A N/A VRB1        N/A
WHEELER*       NOT AVBL
WAIANAE HARBOR NOT AVBL
DILLINGHAM*      N/A     79  66  65 MISG        N/A
KAHUKU TRN*      N/A     70  64  83 NE1G8       N/A
KAWAILOA*        N/A     68  64  88 VRB7        N/A
KII*             N/A     72  64  78 N3G12       N/A
MAKUA RANGE*     N/A     79  64  61 E9G16       N/A
OAHU FOREST NW NOT AVBL
SCHOFIELD BRK*   N/A     72  63  73 MISG        N/A
SCHOFIELD S*   NOT AVBL
WAIANAE VLY*   NOT AVBL
KUAOKALA*      NOT AVBL
HONOULIUULI*   NOT AVBL
MOKUOLOE IS*   NOT AVBL
PALEHUA*       NOT AVBL
WAIAWA PHB*    NOT AVBL
$$

HIZ012>013-010200-
MOLOKAI-

CITY           SKY/WX    TMP DP  RH WIND       PRES   REMARKS
MOLOKAI AIRPT  PTSUNNY   75  68  78 N10       29.97F
KALAUPAPA      NOT AVBL
MAKAPULAPAI*   NOT AVBL
MOLOKAI 1*     NOT AVBL
PUU ALII*        N/A     66  60  82 W1G8        N/A
$$

HIZ016-010200-
KAHOOLAWE-

CITY           SKY/WX    TMP DP  RH WIND       PRES   REMARKS
KAHOOLAWE*     NOT AVBL
HAKIOAWA*        N/A     73  67  80 MISG      30.38F
HONOKANAIA*      N/A     84  71  63 E8G14     29.97F
KANELOA*         N/A     79  70  73 MISG        N/A
KEALIALALO*    NOT AVBL
LUA MAKIKA*    NOT AVBL
$$

HIZ014>015-010200-
LANAI-

CITY           SKY/WX    TMP DP  RH WIND       PRES   REMARKS
LANAI CITY     CLOUDY    77  66  68 W6        30.01F
LANAI 1*       NOT AVBL
$$

HIZ017>028-010200-
MAUI-

CITY           SKY/WX    TMP DP  RH WIND       PRES   REMARKS
KAHULUI        PTSUNNY   80  69  69 N12       29.95F
KAPALUA-W MAUI MOSUNNY   79  68  69 N14       29.96
HANA AIRPORT   CLOUDY    73  72  94 CALM      29.98S FOG
HANA*            N/A     75 N/A N/A S1G7        N/A
HALEAKALA SUMM   N/A     50  36  57 SW10G24     N/A
MAALAEA BAY*   NOT AVBL
HALEAKALA*     NOT AVBL
KAUPO GAP*     NOT AVBL
KULA 1*          N/A     62  53  72 W8G20       N/A
$$

HIZ023>026-010200-
BIG ISLAND OF HAWAII COAST AND LOWER SLOPES-

CITY           SKY/WX    TMP DP  RH WIND       PRES   REMARKS
KAILUA KONA    SUNNY     81  68  64 W7        29.94F
HILO           PTSUNNY   80  69  69 E16       29.94S
HONOKAA*       NOT AVBL
KAWAIHAE MWT*    N/A     81 N/A N/A W8          N/A
KAWAIHAE*        N/A     79 N/A N/A W8          N/A
SOUTH POINT*     N/A     77 N/A N/A E13G20      N/A
UPOLU AIRPORT*   N/A    N/A N/A N/A NE10        N/A
KAMUELA*       NOT AVBL
HAKALAU*         N/A     58  55  89 SE3         N/A
KALOKO-HONOKO*   N/A     82  66  57 W8        29.93F
PALI 2*          N/A     66  63  88 SE9G15      N/A
KEALAKOMO*       N/A     81  70  69 E8          N/A
KAUPULEHU*     NOT AVBL
KAPAPALA*        N/A     75  65  70 S5G12       N/A
LOWER KAHUKU*    N/A     72  61  68 SE3G12      N/A
PUHE CS*         N/A     82  70  65 W3G9        N/A
PUHO CS*         N/A     82  66  59 W5G12       N/A
PTA KEAMUKU*     N/A     68  59  73 CALM        N/A
WAIKOLOA*      NOT AVBL
$$

HIZ027>028-010200-
BIG ISLAND OF HAWAII INTERIOR AND SUMMMITS-

CITY           SKY/WX    TMP DP  RH WIND       PRES   REMARKS
BRADSHAW FIELD SUNNY     64  52  64 SW8       30.27F
MK VISITOR CEN NOT AVBL
MAUNA KEA*       N/A     37   1  22 NW31        N/A  WCI  25
MAUNA LOA*       N/A     46  36  66 MISG        N/A
MAUNA LOA 1*   NOT AVBL
PTA KIPUKA*      N/A     64  54  68 NW6G13      N/A
PTA RANGE 17*    N/A     63  54  72 NW10G17     N/A
PTA WEST*        N/A     66  57  72 NW9G16      N/A
NENE CABIN*      N/A     54  46  76 SE5G10      N/A
AHUMOA*        NOT AVBL
PTA PORTABLE*  NOT AVBL
PUU MALI*      NOT AVBL
$$

HIC003-010200-
NORTHWEST ISLANDS-

CITY           SKY/WX    TMP DP  RH WIND       PRES   REMARKS
MIDWAY ISLAND  PTSUNNY   66  48  52 SE8       30.01F
MIDWAY NOS*    NOT AVBL
FRENCH FRIGATE NOT AVBL
$$

PHZ110>124-180-010200-
BUOY REPORTS

STATION/POSITION TIME  TEMP    WIND        PRES    WAVE   SWELL
                       AIR SEA DIR/SP/G            HT/PER HT/DIR
                 (UTC) (F)     (DEG/KT/KT) (MB)    (FT/S) (FT/D)
BUOY 51001       NOT AVBL
BUOY 51101       0100   69 72  290/ 10/ 14 1015.0F  11/12  11/320
BUOY 51100       0100   74     230/  2     1014.9
BUOY 51003       0100   76 78   80/ 10/ 12 1013.7F  10/14  10
BUOY 51004       0016   77 78  100/ 14/ 16 1013.3F   8/12   7/340
BARBERS PT BUOY  NOT AVBL
WAIMEA BAY BUOY  0100      77                N/A    10/12   8/310
KAILUA BAY BUOY  0100      77                N/A     6/12   3/360
LANAI BUOY       0100      79                N/A     4/13   3/270
BARBERS PT 2     0100      78                N/A     6/14   5/310
PAUWELA MAUI     0100      77                N/A     8/14   7/320
HILO             0100      77                N/A     7/12   7/340
KANEOHE BAY BUOY 0100      77                N/A     6/ 8   3/350
HANALEI KAUAI    NOT AVBL
KAHULUI HARBOR   0100   75 77   20/  8/ 10 1014.2F
HONOLULU HARBOR  0100   77 77  240/  6/  8 1014.3F
KILO NALU        NOT AVBL
HILO HARBOR      0100   82 77   90/ 11/ 15 1013.2S
MOKUOLOE         0100      75              1014.9S
NAWILIWILI       0100      76                N/A
WHOTS BUOY       NOT AVBL
BUOY 51028       NOT AVBL
$$

......................KEY........................................
  SKY/WX - SKY CONDITIONS/PRESENT WEATHER
  TMP    - TEMPERATURE IN FAHRENHEIT
  DWPT   - DEWPOINT IN FAHRENHEIT
  RH     - RELATIVE HUMIDITY IN PERCENT
  WIND   - DIRECTION AND SPEED /MPH FOR ISLANDS...KTS FOR BUOYS/
  PRES   - MEAN SEA LEVEL PRESSURE IN INCHES OF HG
  VSB    - VISIBILITY IN MILES
  HX     - HEAT INDEX
  WCI    - WIND CHILL INDEX
  VRB    - VARIABLE WIND DIRECTION
  N/A    - NOT AVAILABLE


USA.gov is the U.S. government's official web portal to all federal, state and local government web resources and services.